Dewpoint
68 67 69 70 69 69 69 68 68 68 68 68 68 68 68 69 68 68 68 68 68 67 67 66 65 65 65 66 66 66 58 51
68 68 67 67 69 67 66 66 66 66 67 67 68 69 69 68 68 69 68 68 68 68 67 67 66 66 66 65 65 65 58 55
68 67 67 67 67 66 65 65 65 66 67 66 67 68 68 67 67 67 68 68 68 67 67 67 67 67 66 66 66 59 59 57
66 66 67 67 64 66 65 64 65 66 67 67 66 68 67 65 66 65 65 64 65 66 66 67 67 63 63 66 62 63 61 62
66 66 66 65 65 64 62 63 64 65 67 67 67 67 67 65 65 64 64 63 63 64 64 64 66 66 67 67 68 67 64 60
63 64 64 66 64 63 62 61 62 61 62 63 65 64 64 64 61 59 59 60 61 61 61 61 61 62 62 64 65 64 59 56
61 61 61 61 62 60 59 58 58 57 56 57 58 58 58 57 57 58 59 59 59 62 62 59 60 61 63 60 62 61 54 50
59 58 58 57 57 56 56 56 55 54 55 57 59 58 59 57 57 55 55 54 54 54 54 55 57 61 57 56 57 54 48 47
60 58 55 54 54 54 55 53 52 52 53 55 55 55 55 55 53 52 51 51 50 49 50 53 57 57 53 50 51 47 42 45
54 54 56 55 54 52 50 50 50 49 49 50 51 50 51 50 47 48 49 46 44 43 46 51 55 56 52 47 43 40 40 40
51 52 50 51 51 49 50 50 47 46 47 47 49 47 47 45 44 45 46 41 41 39 46 54 54 53 50 48 46 40 35 29
52 51 49 49 47 47 45 45 45 45 45 46 47 43 43 41 41 42 39 37 39 41 49 53 52 50 46 48 47 41 34 31
52 51 49 46 44 44 43 43 42 42 43 44 43 41 41 40 37 39 38 39 41 42 41 49 48 51 52 50 49 48 42 33
53 50 47 46 45 44 43 42 40 39 41 41 40 40 39 38 39 38 39 38 41 42 42 36 37 41 40 43 36 41 32 36
52 49 48 46 46 45 43 41 38 36 36 36 38 37 36 38 39 39 39 38 37 40 40 40 33 36 40 37 31 23 30 32
53 50 47 46 45 43 42 37 34 36 36 37 37 37 35 34 38 39 39 38 38 37 38 39 37 35 35 36 39 38 32 28
53 51 48 46 45 44 40 39 38 37 37 40 40 38 36 34 37 38 38 36 39 40 41 40 38 36 36 36 37 36 36 34
51 51 48 46 45 44 41 40 38 37 37 37 38 37 35 37 36 37 37 37 38 38 40 41 40 39 36 36 35 33 32 31
48 48 46 46 46 43 41 40 40 39 38 36 37 38 37 39 38 37 35 37 38 38 39 40 40 38 39 36 35 34 33 32
44 44 44 45 45 43 41 38 35 36 37 36 36 38 38 40 39 39 38 37 37 38 36 36 39 38 40 38 34 34 34 34
Lifted_Index
-3 -2 -2 -2 -1 -1 -1 -1 -0 -0 -0 -1 -1 -1 -1 -1 -2 -2 -2 -1 -1 -1 -1 -0 0 1 1 1 1 2 2 3
-3 -2 -2 -2 -1 -1 -0 -0 -0 0 -0 -1 -1 -2 -2 -2 -2 -2 -2 -2 -2 -1 -1 -1 -0 0 0 1 1 1 1 1
-3 -3 -2 -2 -1 -1 -0 -0 0 -0 -1 -1 -2 -3 -3 -2 -2 -2 -2 -2 -2 -2 -2 -1 -1 -1 -1 -1 -1 -1 -1 -0
-3 -3 -2 -2 -1 -1 -1 -1 -0 -1 -1 -2 -2 -3 -3 -3 -2 -2 -2 -2 -2 -2 -2 -2 -2 -2 -2 -2 -2 -2 -1 -1
-2 -2 -2 -1 -1 -1 -1 -1 -1 -1 -1 -2 -2 -3 -3 -3 -3 -2 -2 -2 -2 -2 -2 -2 -2 -2 -2 -2 -2 -2 -1 -1
-2 -2 -2 -1 -1 -1 -1 -2 -1 -1 -1 -2 -2 -2 -2 -2 -2 -2 -2 -2 -2 -1 -1 -1 -1 -1 -1 -1 -1 -1 -1 -1
-2 -2 -2 -2 -1 -1 -1 -2 -2 -1 -1 -1 -1 -1 -1 -1 -1 -1 -1 -1 -1 -0 -0 0 0 0 0 0 0 -0 -0 -0
-2 -2 -2 -2 -1 -1 -1 -1 -1 -0 0 1 1 1 1 1 1 0 1 1 1 2 2 2 2 2 2 2 1 1 1 1
-1 -1 -1 -1 -0 0 1 1 2 3 4 5 4 4 4 4 4 4 4 4 5 5 5 5 4 4 4 4 3 3 3 4
1 1 1 2 3 4 5 5 6 7 8 8 8 7 7 7 7 8 8 8 9 9 8 6 5 5 6 6 6 6 6 7
3 3 4 5 5 6 8 8 9 9 9 10 10 10 10 10 10 11 11 11 11 11 9 6 5 6 7 7 7 8 10 11
4 4 5 6 7 8 9 9 10 10 10 11 11 11 12 12 12 13 13 13 13 12 10 8 7 7 7 7 7 9 11 13
3 4 5 6 7 8 9 10 10 11 11 12 12 13 13 13 14 14 14 14 14 13 12 10 9 8 7 7 7 9 11 13
3 3 5 6 7 8 10 10 11 12 13 13 14 14 15 15 15 15 15 14 14 14 13 12 12 11 10 9 8 9 11 12
3 4 4 5 7 8 9 11 12 13 14 14 15 15 15 15 15 15 15 15 14 14 14 13 13 13 12 11 10 10 11 11
4 4 4 5 7 8 10 11 13 14 14 15 15 16 16 16 16 15 15 15 15 15 14 14 13 13 13 12 12 11 11 11
4 4 5 6 8 9 10 12 13 14 15 15 15 16 16 16 16 15 15 15 15 15 14 14 14 13 13 13 12 12 11 11
5 5 6 7 8 10 11 13 14 14 14 15 15 15 15 15 15 15 15 15 15 15 15 14 14 14 13 13 13 13 12 12
6 6 7 8 9 10 12 13 13 14 14 14 14 14 14 15 15 15 16 16 15 15 15 14 14 14 13 13 13 14 14 14
7 7 8 8 9 10 12 13 13 13 13 13 13 13 14 14 15 15 16 16 15 15 15 15 14 14 14 14 14 14 14 14